Location: Palmerston North
(40.3500°S, 175.6170°E)
Time: 03:29:08
(UTC+13:00)

Resurs 01 Rocket - Pass Details

Date: 24 January 2019
Orbit: 635 x 643 km, 98.1° (Epoch: 19 February)

Event Time Altitude Azimuth Distance (km) Brightness Sun altitude
Rises 21:36:07 0° 155° (SSE) 2,977 5.2 -9.4°
Reaches altitude 10° 21:38:38 10° 143° (SE) 2,058 4.2 -9.8°
Maximum altitude 21:42:28 27° 84° (E) 1,231 2.6 -10.4°
Enters shadow 21:45:43 13° 30° (NNE) 1,856 3.4 -10.9°
